Find Starlink 5131

NORAD ID: 53996 Int'l Des: 2022-125 Owner: SPXS Country: US Constellation: starlink operational
LEOCIRCULAR

实时位置

正在加载3D地球...

关于 Starlink 5131

正在加载描述...

即将过境

Passes for default location (London). Set your location on the main map for personalized predictions.

高度历史

Loading altitude history...

两行轨道根数

1 53996U 22125AJ 26107.10124774 .00000531 00000-0 51453-4 0 9997
2 53996 53.2184 41.5227 0001594 87.9891 272.1283 15.08839765195269
Epoch: Apr 17, 2026 • Age: 13 hours

当前状态

高度 539.7 km
速度 7.59 km/s
星下点 9.14°N, 27.73°W
发射日期 Oct 5, 2022
运行时间 3.5 years
类型 internet

技术详情

分类 Payload
质量 305.00 kg
干质量 290.00 kg
总质量 305.00 kg
长度 0.20 m
直径 2.80 m
跨度 9.00 m
形状 Box + pan
制造商 SPXS
平台类型 Starlink
阶段状态 In Orbit
所有者/国家 SPXS/US

Most Searched